GW1109 Weather Reports


Display with metric or nautical units.
time (UTC)temp
F
wind
direction
speed
MPH
gust
MPH
rain 1hr
in
rain 24hr
in
rain mn
in
humidity
%
barometer
mb
20260509154547 49 176 3.0 7.0 0.00 0.00 0.00 65 1014.6
20260509153046 49 207 4.0 10.0 0.00 0.00 0.00 57 1014.7
20260509151602 50 236 3.0 8.0 0.00 0.00 0.00 56 1014.7
20260509150046 51 250 4.0 11.0 0.00 0.00 0.00 52 1014.6
20260509144540 51 156 7.0 17.0 0.00 0.00 0.00 46 1014.3
20260509143054 52 189 6.0 13.0 0.00 0.00 0.00 40 1014.0
20260509141549 53 217 3.0 12.0 0.00 0.00 0.00 43 1014.0
20260509140049 52 134 4.0 10.0 0.00 0.00 0.00 46 1014.0
20260509134547 52 185 4.0 9.0 0.00 0.00 0.00 41 1014.0
20260509133041 52 0 2.0 9.0 0.00 0.00 0.00 45 1014.0
20260509131559 52 217 5.0 9.0 0.00 0.00 0.00 44 1014.1
20260509130119 52 227 4.0 7.0 0.00 0.00 0.00 49 1014.3
20260509124549 51 233 2.0 6.0 0.00 0.00 0.00 48 1014.4
20260509123116 49 208 1.0 5.0 0.00 0.00 0.00 55 1014.4
20260509121542 48 258 3.0 5.0 0.00 0.00 0.00 56 1014.5
20260509120048 47 236 3.0 7.0 0.00 0.00 0.00 59 1014.5
20260509114621 47 230 4.0 5.0 0.00 0.00 0.00 60 1014.4
20260509113052 45 217 3.0 5.0 0.00 0.00 0.00 63 1014.5
20260509111545 44 232 2.0 5.0 0.00 0.00 0.00 64 1014.4
20260509110057 43 226 2.0 4.0 0.00 0.00 0.00 66 1014.5
20260509104541 42 202 2.0 5.0 0.00 0.00 0.00 69 1014.4
20260509103041 40 221 2.0 4.0 0.00 0.00 0.00 71 1014.1
20260509101559 39 355 0.0 0.0 0.00 0.00 0.00 71 1013.8
20260509100046 39 0 0.0 0.0 0.00 0.00 0.00 70 1013.6
20260509094546 40 0 0.0 0.0 0.00 0.00 0.00 67 1013.4
20260509093041 42 0 0.0 0.0 0.00 0.00 0.00 64 1013.3
20260509091544 41 0 0.0 0.0 0.00 0.00 0.00 65 1013.2
20260509090049 41 0 0.0 1.0 0.00 0.00 0.00 65 1012.9
20260509084552 41 355 1.0 2.0 0.00 0.00 0.00 65 1012.9
20260509083045 42 286 0.0 3.0 0.00 0.00 0.00 63 1012.8
20260509081548 42 278 1.0 3.0 0.00 0.00 0.00 64 1013.1
20260509080050 40 273 3.0 6.0 0.00 0.00 0.00 68 1013.3
20260509074543 39 228 1.0 4.0 0.00 0.00 0.00 68 1013.3
20260509073048 39 222 2.0 3.0 0.00 0.00 0.00 67 1013.1
20260509071543 40 265 2.0 3.0 0.00 0.00 0.00 65 1013.0
20260509070051 41 0 0.0 2.0 0.00 0.00 0.00 62 1013.0
20260509064553 42 0 0.0 3.0 0.00 0.00 0.00 60 1013.0
20260509063041 41 258 1.0 3.0 0.00 0.00 0.00 60 1012.9
20260509061601 42 242 2.0 3.0 0.00 0.00 0.00 58 1012.9
20260509060048 42 241 1.0 3.0 0.00 0.00 0.00 55 1012.8
20260509054606 42 0 0.0 0.0 0.00 0.00 0.00 53 1012.9
20260509053052 43 0 0.0 0.0 0.00 0.00 0.00 52 1012.7
20260509051544 43 0 0.0 0.0 0.00 0.00 0.00 55 1012.7
20260509050052 43 0 0.0 0.0 0.00 0.00 0.00 53 1012.7
20260509044548 44 0 0.0 0.0 0.00 0.00 0.00 53 1012.7
20260509043044 46 0 0.0 1.0 0.00 0.00 0.00 45 1012.6
20260509041542 45 0 0.0 0.0 0.00 0.00 0.00 44 1012.7
20260509040049 45 0 0.0 0.0 0.00 0.00 0.00 46 1012.5
20260509034541 45 0 0.0 2.0 0.00 0.00 0.00 47 1012.3
20260509033048 44 229 0.0 3.0 0.00 0.00 0.00 49 1012.2
20260509031605 44 229 1.0 2.0 0.00 0.00 0.00 49 1012.1
20260509030045 44 229 1.0 2.0 0.00 0.00 0.00 51 1012.1
20260509024541 44 229 2.0 6.0 0.00 0.00 0.00 55 1012.0
20260509023040 45 0 0.0 0.0 0.00 0.00 0.00 48 1011.7
20260509021547 45 0 0.0 0.0 0.00 0.00 0.00 45 1011.5
20260509020048 45 0 0.0 0.0 0.00 0.00 0.00 44 1011.1
20260509014544 44 0 0.0 0.0 0.00 0.00 0.00 44 1011.0
20260509013044 44 0 0.0 0.0 0.00 0.00 0.00 44 1010.8
20260509011543 44 0 0.0 0.0 0.00 0.00 0.00 47 1010.6
20260509010049 45 0 0.0 0.0 0.00 0.00 0.00 44 1010.4
20260509004550 46 0 0.0 0.0 0.00 0.00 0.00 40 1010.2
20260509003049 47 0 0.0 3.0 0.00 0.00 0.00 39 1009.9
20260509001545 48 0 2.0 5.0 0.00 0.00 0.00 38 1009.6
20260509000049 49 317 2.0 5.0 0.00 0.00 0.00 37 1009.6
20260508234548 50 340 3.0 9.0 0.00 0.00 0.00 40 1009.4
20260508233055 52 308 3.0 9.0 0.00 0.00 0.00 33 1009.1
20260508231546 52 304 5.0 11.0 0.00 0.00 0.00 32 1009.0
20260508230122 53 281 6.0 15.0 0.00 0.00 0.00 31 1008.9
20260508224549 53 317 8.0 17.0 0.00 0.00 0.00 32 1009.0
20260508223044 54 265 7.0 15.0 0.00 0.00 0.00 31 1008.8
20260508221541 54 247 8.0 14.0 0.00 0.00 0.00 28 1008.7
20260508220109 54 252 8.0 17.0 0.00 0.00 0.00 30 1008.6
20260508214549 53 306 10.0 20.0 0.00 0.00 0.00 31 1008.6
20260508213046 54 298 13.0 24.0 0.00 0.00 0.00 28 1008.4
20260508211547 54 306 11.0 21.0 0.00 0.00 0.00 30 1008.4
20260508210045 54 283 7.0 16.0 0.00 0.00 0.00 33 1008.2
20260508204543 54 313 7.0 14.0 0.00 0.00 0.00 35 1008.2
20260508203048 54 275 11.0 20.0 0.00 0.00 0.00 31 1007.9
20260508201548 53 316 8.0 21.0 0.00 0.00 0.00 34 1007.9
20260508200046 54 277 9.0 18.0 0.00 0.00 0.00 34 1007.8
20260508194542 53 325 8.0 21.0 0.00 0.00 0.00 34 1007.7
20260508193047 54 309 10.0 20.0 0.00 0.00 0.00 33 1007.5
20260508191543 54 284 10.0 21.0 0.00 0.00 0.00 31 1007.7
20260508190103 54 326 6.0 19.0 0.00 0.00 0.00 35 1007.5
20260508184551 56 307 13.0 24.0 0.00 0.00 0.00 33 1007.4
20260508183048 55 266 12.0 23.0 0.00 0.00 0.00 34 1007.3
20260508181605 55 316 13.0 22.0 0.00 0.00 0.00 31 1007.3
20260508180048 54 323 10.0 19.0 0.00 0.00 0.00 31 1007.3
20260508174549 54 254 8.0 15.0 0.00 0.00 0.00 29 1007.3
20260508173046 54 290 7.0 20.0 0.00 0.00 0.00 28 1007.2
20260508171545 54 261 6.0 16.0 0.00 0.00 0.00 31 1007.2
20260508170046 54 5 5.0 21.0 0.00 0.00 0.00 29 1007.0
20260508164541 53 286 9.0 16.0 0.00 0.00 0.00 33 1007.0
20260508163048 53 308 7.0 13.0 0.00 0.00 0.00 31 1007.3
20260508161546 53 344 6.0 19.0 0.00 0.00 0.00 33 1007.4
20260508160047 53 242 9.0 17.0 0.00 0.00 0.00 31 1007.4